STARLINK-30236, 57300

Orbit data source: Space-Track

STARLINK-30236, 57300 is a payload satellite owned by SpaceX/Seattle (US) in LEO that was launched on Mon, 10 Jul 2023 UTC via an FALCON 9 launch vehicle from the Air Force Eastern Test Range (AFETR). Payload-class satellites include a variety of spacecraft equipped with specific instruments for various scientific and technological missions. These include communications satellites like Starlink; space stations such as the ISS; scientific satellites like the Hubble; Earth observation satellites from companies like Planet Labs, Umbra, and HawkEye 360; GPS; miniature CubeSats for education and research; and military/defense satellites.

Loading next visibility...
Identifier
57300, 2023-096L
Orbit
LEO
Country
Flag of USUS
Related business
Manufacturer
SpaceX/Seattle
Mission
Operational Commercial Communications
Bus & Motor
STARLINK V2M, Unknown motor
Mass
730 kg wet, ~700 kg dry
Launch date (UTC)
2023-07-10 (3 years ago)
Launch vehicle
FALCON 9
Launch site
Air Force Eastern Test Range (AFETR)
Object type
Payload
Rocket body
Debris
Shape & HBR
Box + 2 Pan, 17.7 m
Radar Cross Section
33.884 m², Large (>1 m²)

Expand to show TLE details & history
Last TLE update: 3 days ago

TLE from 3 days ago
0 STARLINK-30236
1 57300U 23096L   26170.60636616 -.00000433  00000-0 -61948-5 0  9990
2 57300  43.0052   7.6506 0001986 281.0829  78.9800 15.27561968163247
Epoch: 2026-06-19T14:33Z
TLE epoch observation values (Epoch: 2026-06-19T14:33:10.036Z)
Latitude
0.00004°
Longitude
-118.4741°
Altitude
482.619 km
Speed
7.626 km/s
True Right ascension
00h 30m 36s
True Declination
0° 00' 00"
Sunlit
Object was in daylight at epoch
Visualization orbit readout
Latitude
Unknown
Longitude
Unknown
Altitude
Unknown
Speed
Unknown
Apparent Right ascension
Unknown
Apparent Declination
Unknown
Sunlit
N/A
Visualization observer readout
Local Sidereal Time
23:20:34
Azimuth
Unknown
Elevation
Unknown
Doppler factor
Unknown
Orbital elements
Apogee altitude
486.41 km
Perigee altitude
483.684 km
Semi-major axis
6,863.184 km
Eccentricity
0.0002
Inclination
43.0052°
RAAN
7.6506°
Arg. of periapsis
281.0829°
True anomaly
79.00234°
Mean anomaly
78.98°
Eccentric anomaly
78.99117°
Mean motion
3.81729 °/min
Orbital period
94.31 mins
BSTAR
-0.0000061948
Loading maneuver chart data...
Computing Atmospheric mass density...

Documentation

Showing up to 5 results
|